[[{"header":{"parameterUnit":"m.s-1","parameterCategory":1,"la1":30.2991,"la2":30.254,"lo1":-89.0895,"lo2":-89.0444,"dy":0.0017,"dx":0.0017,"nx":28,"ny":28,"refTime":"2024-09-24T21:00:00:Z","depth":0,"parameterNumber":2,"parameterNumberName":"U-component_of_WINDS"},"data":[0,0,0,0,0,0,0,0,0,0,0,0,0,0,0,0,0,0,0,0,0,0,0,0,0,0,0,0,0,0,0,0,0,0,0,0,0,0,0,0,0,0,0,0,0,0,0,0,0,0,0,0,0,0,0,0,0,0,2.3609,2.361,0,2.3689,2.369,2.3691,2.3671,2.367,2.3668,2.3667,2.3744,2.3747,2.3751,0,0,0,0,0,0,0,0,0,0,0,0,0,2.3434,2.3438,2.3609,2.361,2.3611,2.3689,2.369,2.3691,2.3672,2.367,2.3668,2.3666,2.3743,2.3747,2.3751,0,0,0,0,0,0,0,0,0,0,0,0,0,2.3512,2.3439,2.3609,2.3611,2.3612,2.3689,2.369,2.3691,2.3672,2.367,2.3667,2.3665,2.3742,2.3747,2.3752,2.383,0,0,2.3768,2.377,0,0,0,0,0,0,0,0,2.3507,2.3518,2.3609,2.3611,2.3612,2.3668,2.3657,2.3738,2.3673,2.3649,2.3667,2.3664,2.372,2.3727,2.3747,2.3834,2.3837,2.3768,2.3771,2.3774,2.3775,0,0,0,0,0,0,0,2.3502,2.3515,2.364,2.3611,2.3612,2.3606,2.3614,2.3672,2.3696,2.3651,2.365,2.366,2.372,2.3742,2.3749,2.3838,2.3768,2.3773,2.3776,2.3778,2.3993,2.3995,0,0,0,0,0,0,2.3496,2.351,2.3638,2.3643,2.3553,2.3611,2.3621,2.3652,2.3696,2.37,2.3661,2.3658,2.3734,2.3743,2.3751,2.3845,2.3774,2.3779,2.3782,2.399,2.3993,2.3996,0,0,0,0,0,0,2.3493,2.3508,2.3634,2.3576,2.3592,2.3617,2.3652,2.3655,2.3676,2.3704,2.3708,2.3679,2.3733,2.3744,2.3811,2.3848,2.3781,2.3786,2.3987,2.3991,2.3995,2.4034,0,0,0,0,0,0,2.3488,2.3507,2.3538,2.3577,2.3595,2.3694,2.3655,2.3658,2.3686,2.3683,2.3722,2.3726,2.3732,2.3803,2.3816,2.3854,2.379,2.3984,2.3989,2.3993,2.403,2.4039,2.4047,0,0,0,0,0,2.3482,2.3545,2.3539,2.3555,2.3635,2.3696,2.3706,2.3714,2.3689,2.372,2.3737,2.3725,2.3842,2.381,2.3825,2.3864,2.3981,2.3987,2.3993,2.4026,2.4037,2.4047,0,0,0,0,0,0,2.3507,2.355,2.3544,2.3623,2.3656,2.3693,2.3732,2.3725,2.3765,2.376,2.3766,2.3775,2.3843,2.386,2.3824,2.3942,2.3908,2.3917,2.3928,2.3939,2.3948,2.3941,2.3794,0,0,0,0,0,2.3522,2.3571,2.3605,2.367,2.3688,2.3707,2.3734,2.3737,2.3771,2.3785,2.3807,2.384,2.3884,2.3913,2.3955,2.4033,2.404,2.4067,2.4076,2.4083,2.409,2.4131,2.4143,2.4015,2.4015,2.4015,0,0,2.3553,2.3583,2.3612,2.3676,2.3703,2.3751,2.3719,2.3771,2.3806,2.3792,2.3857,2.3875,2.3911,2.3984,2.4017,2.4,2.4127,2.409,2.4095,2.4099,2.4138,2.4151,2.4161,2.4019,2.4018,2.4017,0,0,2.3634,2.3662,2.372,2.3747,2.3788,2.3801,2.3814,2.3853,2.3864,2.393,2.392,2.3961,2.4038,2.4064,2.4087,2.4179,2.4168,2.4192,2.4237,2.4277,2.4287,2.4296,2.4328,2.4339,2.42,2.42,2.42,0,2.3667,2.3741,2.3749,2.3803,2.3831,2.3822,2.3879,2.3905,2.3957,2.3976,2.3957,2.4053,2.4077,2.4155,2.4177,2.4197,2.4212,2.4187,2.4285,2.4294,2.4303,2.4333,2.4345,2.4202,2.4202,2.4202,2.4202,0,2.3779,2.383,2.3871,2.3923,2.3956,2.4011,2.4027,2.4058,2.4058,2.4073,2.4139,2.4168,2.4215,2.4234,2.4234,2.4313,2.4301,2.4284,2.4249,2.4318,2.4346,2.4357,2.4206,2.4205,2.4204,2.4204,0,0,2.3877,2.3934,2.3949,2.3972,2.4017,2.4056,2.411,2.4159,2.4185,2.4221,2.4266,2.4331,2.4316,2.4342,2.4345,2.4381,2.445,2.4359,2.436,2.4374,2.4537,2.4548,2.4562,2.4444,2.4446,2.4448,2.4533,0,2.3961,2.4059,2.4068,2.4155,2.4201,2.4194,2.4241,2.4273,2.4287,2.4328,2.4344,2.4389,2.4366,2.4382,2.4417,2.4434,2.4483,2.4429,2.4484,2.4486,2.4473,2.4577,2.4589,2.4668,2.4544,2.4546,2.4548,0,2.4072,2.4113,2.4205,2.4243,2.4263,2.4306,2.435,2.439,2.4425,2.4433,2.4463,2.4462,2.4516,2.4481,2.4555,2.4518,2.4541,2.4553,2.4556,2.456,2.452,2.4582,2.4693,2.4705,2.4565,2.4564,2.4563,0,2.4134,2.4212,2.4277,2.4297,2.4343,2.4373,2.4393,2.4427,2.4455,2.4494,2.4512,2.4556,2.458,2.4613,2.4622,2.4596,2.4696,2.4662,2.4702,2.4702,2.4722,2.4721,2.4838,2.474,2.474,2.474,2.4739,0,2.4226,2.4282,2.4305,2.4344,2.4407,2.4416,2.4477,2.4496,2.4525,2.4567,2.4563,2.4602,2.4613,2.4654,2.4662,2.4721,2.4732,2.4739,2.474,2.4739,2.4738,2.4753,2.4747,2.4743,2.4742,2.4741,2.4741,0,2.4304,2.4322,2.4392,2.4431,2.4442,2.4486,2.4518,2.4555,2.457,2.4623,2.4636,2.4658,2.4706,2.4719,2.4776,2.4781,2.485,2.4847,2.4839,2.4838,2.4878,2.4873,2.5007,2.5024,2.4917,2.4918,2.4919,0,2.4361,2.4405,2.4448,2.4477,2.4499,2.4545,2.4574,2.4585,2.4616,2.4659,2.4691,2.4739,2.4777,2.4853,2.4873,2.4916,2.4913,2.4957,2.4919,2.4916,2.4912,2.4909,2.4912,2.4964,2.4965,2.4966,2.4967,0,2.4461,2.4467,2.4511,2.4557,2.4592,2.4629,2.4664,2.4687,2.4703,2.4737,2.4786,2.4816,2.4875,2.4921,2.4965,2.4984,2.4978,2.4979,2.499,2.4988,2.4981,2.4984,2.4856,2.4975,2.4974,2.4974,2.4973,2.4973,2.4529,2.4567,2.4604,2.4652,2.468,2.4712,2.4749,2.4769,2.4811,2.4861,2.4864,2.4918,2.4951,2.5009,2.5031,2.5072,2.5058,2.5075,2.5079,2.5083,2.5086,2.4976,2.508,2.508,2.5079,2.5079,2.5079,0,2.4627,2.4651,2.4695,2.4745,2.4782,2.4775,2.4813,2.4844,2.4891,2.4924,2.4962,2.5019,2.5064,2.5088,2.5132,2.516,2.5158,2.5171,2.5168,2.5173,2.5096,2.5081,2.5172,2.5172,2.5172,2.5172,2.5172,2.5172,2.4682,2.4745,2.4757,2.4833,2.4856,2.4909,2.4931,2.4961,2.4987,2.5051,2.5089,2.5105,2.5133,2.518,2.522,2.5226,2.5242,2.5257,2.526,2.5188,2.5178,2.5169,2.5155,2.526,2.5261,2.5334,2.5334,2.5335]},{"header":{"parameterUnit":"m.s-1","parameterCategory":1,"la1":30.2991,"la2":30.254,"lo1":-89.0895,"lo2":-89.0444,"dy":0.0017,"dx":0.0017,"nx":28,"ny":28,"refTime":"2024-09-24T21:00:00:Z","depth":0,"parameterNumber":3,"parameterNumberName":"V-component_of_WINDS"},"data":[0,0,0,0,0,0,0,0,0,0,0,0,0,0,0,0,0,0,0,0,0,0,0,0,0,0,0,0,0,0,0,0,0,0,0,0,0,0,0,0,0,0,0,0,0,0,0,0,0,0,0,0,0,0,0,0,0,0,-1.4509,-1.4509,0,-1.4538,-1.4538,-1.4538,-1.4544,-1.4544,-1.4543,-1.4543,-1.4571,-1.4572,-1.4573,0,0,0,0,0,0,0,0,0,0,0,0,0,-1.4457,-1.4458,-1.4509,-1.4509,-1.451,-1.4538,-1.4538,-1.4539,-1.4544,-1.4544,-1.4543,-1.4543,-1.4571,-1.4572,-1.4573,0,0,0,0,0,0,0,0,0,0,0,0,0,-1.4482,-1.4458,-1.4509,-1.4516,-1.4517,-1.4538,-1.4538,-1.4539,-1.4544,-1.4544,-1.4543,-1.4543,-1.457,-1.4572,-1.4573,-1.4588,0,0,-1.4577,-1.4578,0,0,0,0,0,0,0,0,-1.448,-1.4484,-1.4514,-1.4515,-1.4516,-1.4537,-1.453,-1.4555,-1.4544,-1.4534,-1.4543,-1.4543,-1.456,-1.4562,-1.4568,-1.459,-1.4591,-1.4577,-1.4578,-1.4579,-1.4579,0,0,0,0,0,0,0,-1.4479,-1.4483,-1.452,-1.4515,-1.4516,-1.4517,-1.452,-1.4535,-1.4548,-1.4534,-1.4535,-1.4538,-1.456,-1.4567,-1.4569,-1.4591,-1.4577,-1.4579,-1.458,-1.458,-1.4627,-1.4628,0,0,0,0,0,0,-1.4476,-1.4481,-1.4519,-1.4521,-1.4497,-1.4518,-1.4522,-1.4531,-1.4548,-1.455,-1.4539,-1.4539,-1.4564,-1.4567,-1.457,-1.4589,-1.4579,-1.458,-1.4581,-1.4627,-1.4627,-1.4628,0,0,0,0,0,0,-1.4475,-1.4479,-1.4518,-1.4501,-1.4506,-1.4519,-1.4529,-1.4531,-1.4538,-1.4551,-1.4553,-1.4543,-1.4564,-1.4568,-1.4584,-1.459,-1.4581,-1.4582,-1.4626,-1.4627,-1.4627,-1.4627,0,0,0,0,0,0,-1.4473,-1.4479,-1.4485,-1.4501,-1.4507,-1.4532,-1.453,-1.4532,-1.4541,-1.4541,-1.4556,-1.4558,-1.4564,-1.4582,-1.4585,-1.4592,-1.4583,-1.4626,-1.4627,-1.4627,-1.4627,-1.4628,-1.4629,0,0,0,0,0,-1.4471,-1.4484,-1.4486,-1.449,-1.4516,-1.4533,-1.4536,-1.4544,-1.4541,-1.4547,-1.4556,-1.4557,-1.4589,-1.4583,-1.4587,-1.4594,-1.4625,-1.4626,-1.4627,-1.4627,-1.4628,-1.4629,0,0,0,0,0,0,-1.4467,-1.4486,-1.4488,-1.4506,-1.4518,-1.4534,-1.4542,-1.4545,-1.4557,-1.4556,-1.4565,-1.4568,-1.4584,-1.4591,-1.4584,-1.461,-1.4607,-1.4609,-1.4605,-1.4606,-1.4607,-1.4605,-1.4584,0,0,0,0,0,-1.4469,-1.4482,-1.4497,-1.4512,-1.4517,-1.4529,-1.4536,-1.4541,-1.4553,-1.4558,-1.4568,-1.4579,-1.4591,-1.4599,-1.4611,-1.4628,-1.4631,-1.4635,-1.4636,-1.4637,-1.4638,-1.4647,-1.4649,-1.4631,-1.4631,-1.4631,0,0,-1.4471,-1.4483,-1.4491,-1.4511,-1.4521,-1.4533,-1.4533,-1.4546,-1.4555,-1.456,-1.4576,-1.4583,-1.4596,-1.4613,-1.4621,-1.4619,-1.4644,-1.4638,-1.4638,-1.4639,-1.4648,-1.465,-1.4652,-1.4631,-1.4631,-1.4631,0,0,-1.4483,-1.4493,-1.4506,-1.4516,-1.4531,-1.4538,-1.4541,-1.4557,-1.4562,-1.4578,-1.4582,-1.4593,-1.4614,-1.4623,-1.4631,-1.4646,-1.4648,-1.465,-1.4654,-1.4663,-1.4665,-1.4666,-1.4671,-1.4673,-1.4651,-1.4651,-1.4651,0,-1.4484,-1.4504,-1.4512,-1.4526,-1.4534,-1.454,-1.4553,-1.4562,-1.4579,-1.4585,-1.4584,-1.461,-1.462,-1.4638,-1.4642,-1.4648,-1.4651,-1.4648,-1.4664,-1.4665,-1.4667,-1.4672,-1.4674,-1.4651,-1.4651,-1.4651,-1.4651,0,-1.4504,-1.4518,-1.4527,-1.4544,-1.4554,-1.4567,-1.4577,-1.4586,-1.459,-1.4597,-1.4614,-1.4625,-1.464,-1.4645,-1.4648,-1.4664,-1.4663,-1.4662,-1.4659,-1.4668,-1.4673,-1.4675,-1.4651,-1.4651,-1.4651,-1.4651,0,0,-1.4514,-1.4536,-1.4539,-1.4547,-1.4564,-1.4574,-1.4588,-1.4603,-1.461,-1.4622,-1.4633,-1.4651,-1.4651,-1.4659,-1.4664,-1.4672,-1.4683,-1.4671,-1.4671,-1.4673,-1.4701,-1.47,-1.4703,-1.4685,-1.4685,-1.4685,-1.4699,0,-1.4527,-1.4551,-1.4559,-1.4579,-1.4592,-1.4597,-1.4609,-1.462,-1.4627,-1.4639,-1.4646,-1.4659,-1.4658,-1.4663,-1.4672,-1.468,-1.4689,-1.4679,-1.4695,-1.4695,-1.4691,-1.4705,-1.4705,-1.4718,-1.4701,-1.4702,-1.4702,0,-1.4545,-1.4558,-1.4579,-1.4595,-1.46,-1.461,-1.4625,-1.4636,-1.4648,-1.4653,-1.4663,-1.4667,-1.4681,-1.4677,-1.4696,-1.4689,-1.4696,-1.4701,-1.4702,-1.4703,-1.4699,-1.4707,-1.4722,-1.4724,-1.4705,-1.4705,-1.4705,0,-1.4549,-1.4572,-1.4588,-1.4595,-1.4613,-1.462,-1.4628,-1.464,-1.4649,-1.4661,-1.4666,-1.468,-1.4687,-1.4698,-1.4706,-1.4702,-1.4723,-1.472,-1.4728,-1.4727,-1.4731,-1.4731,-1.4748,-1.4736,-1.4736,-1.4736,-1.4736,0,-1.4563,-1.4576,-1.459,-1.46,-1.4614,-1.4623,-1.4637,-1.4645,-1.4656,-1.4667,-1.4673,-1.4683,-1.4693,-1.4704,-1.471,-1.4725,-1.4728,-1.4732,-1.4734,-1.4732,-1.4731,-1.4736,-1.4735,-1.4737,-1.4737,-1.4736,-1.4736,0,-1.457,-1.458,-1.4598,-1.4614,-1.4618,-1.4628,-1.4641,-1.4651,-1.4658,-1.4672,-1.4676,-1.4688,-1.4702,-1.4711,-1.4728,-1.4732,-1.4748,-1.4749,-1.4744,-1.4744,-1.4751,-1.475,-1.4771,-1.4775,-1.4761,-1.4761,-1.4761,0,-1.4578,-1.4588,-1.4605,-1.4613,-1.4621,-1.4634,-1.4643,-1.4652,-1.4661,-1.4676,-1.4684,-1.4698,-1.471,-1.4731,-1.4741,-1.4755,-1.4756,-1.4763,-1.4758,-1.4756,-1.4756,-1.4755,-1.4756,-1.4763,-1.4763,-1.4763,-1.4763,0,-1.4591,-1.4595,-1.4608,-1.4623,-1.4633,-1.4645,-1.4656,-1.4663,-1.4674,-1.4683,-1.4698,-1.4707,-1.4725,-1.4739,-1.4753,-1.4761,-1.4764,-1.4765,-1.4767,-1.4765,-1.4762,-1.4764,-1.4746,-1.4764,-1.4764,-1.4764,-1.4764,-1.4764,-1.4598,-1.4608,-1.4621,-1.4635,-1.4645,-1.4656,-1.4666,-1.4675,-1.4687,-1.4703,-1.4707,-1.4722,-1.4735,-1.4754,-1.4762,-1.4774,-1.4773,-1.4777,-1.4777,-1.4778,-1.4778,-1.476,-1.4776,-1.4776,-1.4776,-1.4776,-1.4776,0,-1.4611,-1.4621,-1.4633,-1.465,-1.4661,-1.4663,-1.4676,-1.4685,-1.4698,-1.471,-1.4722,-1.4738,-1.4752,-1.4763,-1.4777,-1.4784,-1.4786,-1.4787,-1.4787,-1.4789,-1.4778,-1.4774,-1.4786,-1.4786,-1.4786,-1.4786,-1.4786,-1.4786,-1.462,-1.4635,-1.4641,-1.4662,-1.4671,-1.4686,-1.4693,-1.4703,-1.4712,-1.4731,-1.4742,-1.475,-1.4761,-1.4776,-1.4789,-1.4792,-1.4796,-1.4798,-1.4801,-1.479,-1.4789,-1.4788,-1.4785,-1.4799,-1.4799,-1.4811,-1.4811,-1.4811]}]]